| time (UTC) | temp C | wind direction | speed KPH | gust KPH | rain 1hr cm | rain 24hr cm | rain mn cm | humidity % | barometer mb |
| 20260507105046 | 15 | 16 | 4.8 | 12.9 | 0.00 | 0.13 | 0.00 | 60 | 1015.3 |
| 20260507104041 | 14 | 58 | 6.4 | 14.5 | 0.00 | 0.13 | 0.00 | 58 | 1015.3 |
| 20260507103045 | 14 | 60 | 6.4 | 12.9 | 0.00 | 0.13 | 0.00 | 60 | 1015.3 |
| 20260507102043 | 14 | 32 | 4.8 | 11.3 | 0.00 | 0.15 | 0.00 | 68 | 1015.3 |
| 20260507101046 | 13 | 329 | 4.8 | 11.3 | 0.00 | 0.15 | 0.00 | 72 | 1015.2 |
| 20260507100046 | 13 | 328 | 4.8 | 11.3 | 0.00 | 0.15 | 0.00 | 71 | 1015.2 |
| 20260507093044 | 13 | 329 | 4.8 | 9.7 | 0.00 | 0.20 | 0.00 | 78 | 1015.1 |
| 20260507092046 | 13 | 12 | 3.2 | 9.7 | 0.00 | 0.20 | 0.00 | 79 | 1015.1 |
| 20260507091044 | 13 | 330 | 4.8 | 9.7 | 0.00 | 0.20 | 0.00 | 79 | 1015.1 |
| 20260507090044 | 13 | 17 | 3.2 | 9.7 | 0.00 | 0.23 | 0.00 | 80 | 1015.0 |
| 20260507085044 | 13 | 6 | 4.8 | 9.7 | 0.00 | 0.23 | 0.00 | 81 | 1014.9 |
| 20260507083045 | 12 | 152 | 3.2 | 9.7 | 0.00 | 0.28 | 0.00 | 81 | 1014.8 |
| 20260507081047 | 11 | 21 | 4.8 | 9.7 | 0.00 | 0.30 | 0.00 | 83 | 1014.8 |
| 20260507080044 | 10 | 35 | 3.2 | 9.7 | 0.00 | 0.33 | 0.00 | 87 | 1014.8 |
| 20260507075047 | 9 | 317 | 3.2 | 8.0 | 0.00 | 0.33 | 0.00 | 88 | 1014.8 |
| 20260507074045 | 9 | 309 | 4.8 | 8.0 | 0.00 | 0.36 | 0.00 | 89 | 1014.7 |
| 20260507073046 | 9 | 313 | 3.2 | 8.0 | 0.00 | 0.38 | 0.00 | 90 | 1014.6 |
| 20260507072044 | 9 | 307 | 3.2 | 6.4 | 0.00 | 0.43 | 0.00 | 90 | 1014.6 |
| 20260507071045 | 9 | 311 | 4.8 | 8.0 | 0.00 | 0.43 | 0.00 | 90 | 1014.5 |
| 20260507065043 | 9 | 322 | 4.8 | 8.0 | 0.00 | 0.43 | 0.00 | 91 | 1014.4 |
| 20260507063045 | 8 | 311 | 3.2 | 6.4 | 0.00 | 0.46 | 0.00 | 92 | 1014.3 |
| 20260507062047 | 8 | 78 | 1.6 | 6.4 | 0.00 | 0.48 | 0.00 | 93 | 1014.1 |
| 20260507061047 | 8 | 151 | 1.6 | 6.4 | 0.00 | 0.48 | 0.00 | 94 | 1014.2 |
| 20260507060045 | 8 | 343 | 1.6 | 4.8 | 0.00 | 0.48 | 0.00 | 94 | 1014.1 |
| 20260507054046 | 8 | 321 | 3.2 | 8.0 | 0.00 | 0.51 | 0.00 | 96 | 1013.9 |
| 20260507053043 | 8 | 319 | 3.2 | 6.4 | 0.00 | 0.51 | 0.00 | 96 | 1013.9 |
| 20260507052046 | 8 | 314 | 3.2 | 6.4 | 0.00 | 0.53 | 0.00 | 97 | 1013.8 |
| 20260507051045 | 8 | 328 | 1.6 | 4.8 | 0.00 | 0.58 | 0.00 | 97 | 1013.6 |
| 20260507050043 | 8 | 316 | 1.6 | 4.8 | 0.00 | 0.61 | 0.00 | 98 | 1013.5 |
| 20260507044046 | 7 | 330 | 1.6 | 3.2 | 0.00 | 0.66 | 0.00 | 99 | 1013.2 |
| 20260507043045 | 7 | 337 | 1.6 | 3.2 | 0.00 | 0.69 | 0.00 | 98 | 1013.1 |
| 20260507042047 | 7 | 320 | 1.6 | 3.2 | 0.00 | 0.69 | 0.00 | 98 | 1013.0 |
| 20260507041044 | 7 | 316 | 1.6 | 3.2 | 0.00 | 0.71 | 0.00 | 98 | 1012.9 |
| 20260507034044 | 7 | 310 | 1.6 | 3.2 | 0.00 | 0.76 | 0.00 | 98 | 1012.8 |
| 20260507033044 | 7 | 315 | 0.0 | 3.2 | 0.00 | 0.79 | 0.00 | 98 | 1012.8 |
| 20260507031046 | 8 | 306 | 1.6 | 4.8 | 0.00 | 0.84 | 0.00 | 98 | 1012.7 |
| 20260507030045 | 8 | 302 | 3.2 | 4.8 | 0.00 | 0.89 | 0.00 | 97 | 1012.6 |
| 20260507024044 | 8 | 293 | 3.2 | 4.8 | 0.00 | 0.99 | 0.00 | 97 | 1012.6 |
| 20260507022045 | 8 | 288 | 4.8 | 6.4 | 0.00 | 1.12 | 0.00 | 97 | 1012.4 |
| 20260507021047 | 8 | 291 | 4.8 | 6.4 | 0.00 | 1.14 | 0.00 | 96 | 1012.4 |
| 20260507020047 | 8 | 292 | 4.8 | 6.4 | 0.00 | 1.17 | 0.00 | 96 | 1012.4 |
| 20260507015045 | 8 | 291 | 3.2 | 4.8 | 0.00 | 1.19 | 0.00 | 96 | 1012.4 |
| 20260507014042 | 8 | 288 | 3.2 | 6.4 | 0.00 | 1.22 | 0.00 | 97 | 1012.4 |
| 20260507013043 | 8 | 290 | 4.8 | 6.4 | 0.00 | 1.27 | 0.00 | 97 | 1012.4 |
| 20260507012042 | 8 | 291 | 3.2 | 6.4 | 0.00 | 1.30 | 0.00 | 97 | 1012.3 |
| 20260507011047 | 8 | 300 | 4.8 | 6.4 | 0.00 | 1.32 | 0.00 | 97 | 1012.2 |
| 20260507010046 | 8 | 300 | 3.2 | 6.4 | 0.00 | 1.37 | 0.00 | 97 | 1012.1 |
| 20260507004048 | 8 | 303 | 3.2 | 4.8 | 0.00 | 1.40 | 0.00 | 97 | 1012.2 |
| 20260507003044 | 8 | 309 | 1.6 | 4.8 | 0.00 | 1.45 | 0.00 | 97 | 1012.2 |
| 20260507002044 | 8 | 314 | 1.6 | 3.2 | 0.00 | 1.47 | 0.00 | 97 | 1012.1 |
| 20260507001043 | 7 | 329 | 1.6 | 4.8 | 0.00 | 1.52 | 0.00 | 97 | 1012.1 |
| 20260507000050 | 7 | 356 | 1.6 | 4.8 | 0.00 | 1.55 | 0.00 | 97 | 1012.1 |
| 20260506235047 | 7 | 2 | 1.6 | 4.8 | 0.00 | 1.55 | 0.00 | 97 | 1012.0 |
| 20260506234048 | 7 | 351 | 3.2 | 6.4 | 0.00 | 1.55 | 0.00 | 97 | 1012.0 |
| 20260506232046 | 7 | 352 | 3.2 | 6.4 | 0.00 | 1.60 | 0.00 | 96 | 1011.9 |
| 20260506231047 | 7 | 352 | 3.2 | 8.0 | 0.00 | 1.63 | 0.00 | 97 | 1011.9 |
| 20260506230050 | 7 | 356 | 3.2 | 9.7 | 0.00 | 1.65 | 0.00 | 96 | 1011.8 |
| 20260506225046 | 7 | 351 | 3.2 | 9.7 | 0.00 | 1.65 | 0.00 | 96 | 1011.7 |
| 20260506223046 | 7 | 352 | 3.2 | 9.7 | 0.00 | 1.70 | 0.00 | 96 | 1011.4 |
| 20260506221046 | 8 | 326 | 3.2 | 8.0 | 0.00 | 1.75 | 0.00 | 97 | 1011.2 |
| 20260506220055 | 8 | 336 | 3.2 | 9.7 | 0.00 | 1.78 | 0.00 | 96 | 1011.1 |
| 20260506215049 | 8 | 346 | 3.2 | 9.7 | 0.00 | 1.80 | 1.78 | 96 | 1011.0 |
| 20260506214049 | 8 | 353 | 3.2 | 8.0 | 0.00 | 1.83 | 1.78 | 96 | 1010.9 |
| 20260506212050 | 8 | 356 | 3.2 | 8.0 | 0.00 | 1.83 | 1.78 | 96 | 1010.8 |
| 20260506211050 | 8 | 353 | 4.8 | 11.3 | 0.00 | 1.85 | 1.78 | 96 | 1010.8 |
| 20260506210049 | 8 | 355 | 4.8 | 8.0 | 0.00 | 1.88 | 1.78 | 95 | 1010.9 |
| 20260506204048 | 8 | 359 | 4.8 | 8.0 | 0.00 | 1.93 | 1.78 | 95 | 1010.8 |
| 20260506203050 | 8 | 9 | 3.2 | 9.7 | 0.00 | 1.93 | 1.78 | 95 | 1010.7 |
| 20260506202051 | 8 | 2 | 4.8 | 9.7 | 0.00 | 1.96 | 1.78 | 95 | 1010.7 |
| 20260506201051 | 8 | 6 | 3.2 | 9.7 | 0.00 | 1.98 | 1.78 | 95 | 1010.7 |
| 20260506194052 | 8 | 4 | 3.2 | 9.7 | 0.00 | 2.03 | 1.78 | 94 | 1010.4 |
| 20260506193050 | 8 | 5 | 4.8 | 11.3 | 0.00 | 2.06 | 1.78 | 94 | 1010.3 |
| 20260506192047 | 8 | 10 | 3.2 | 9.7 | 0.00 | 2.08 | 1.78 | 94 | 1010.2 |
| 20260506191049 | 8 | 157 | 4.8 | 11.3 | 0.00 | 2.11 | 1.78 | 94 | 1010.1 |
| 20260506190051 | 8 | 10 | 4.8 | 9.7 | 0.00 | 2.11 | 1.78 | 94 | 1010.0 |
| 20260506185049 | 8 | 26 | 4.8 | 12.9 | 0.00 | 2.13 | 1.78 | 94 | 1010.0 |
| 20260506183050 | 8 | 9 | 4.8 | 9.7 | 0.00 | 2.16 | 1.78 | 94 | 1009.8 |
| 20260506182049 | 8 | 5 | 4.8 | 12.9 | 0.00 | 2.18 | 1.78 | 93 | 1009.6 |
| 20260506181046 | 9 | 2 | 4.8 | 11.3 | 0.00 | 2.21 | 1.78 | 91 | 1009.5 |
| 20260506180048 | 9 | 356 | 3.2 | 8.0 | 0.00 | 2.21 | 1.78 | 90 | 1009.4 |
| 20260506175050 | 9 | 3 | 3.2 | 6.4 | 0.00 | 2.21 | 1.78 | 90 | 1009.3 |
| 20260506174048 | 9 | 358 | 3.2 | 6.4 | 0.00 | 2.21 | 1.78 | 91 | 1009.1 |
| 20260506173047 | 9 | 9 | 3.2 | 8.0 | 0.00 | 2.21 | 1.78 | 92 | 1009.1 |
| 20260506170045 | 9 | 1 | 3.2 | 8.0 | 0.00 | 2.21 | 1.78 | 91 | 1008.9 |
| 20260506165045 | 9 | 1 | 3.2 | 6.4 | 0.00 | 2.21 | 1.78 | 90 | 1008.9 |
| 20260506164046 | 10 | 186 | 3.2 | 8.0 | 0.00 | 2.21 | 1.78 | 91 | 1008.8 |
| 20260506163046 | 10 | 2 | 3.2 | 9.7 | 0.00 | 2.21 | 1.78 | 91 | 1008.7 |
| 20260506162049 | 10 | 3 | 4.8 | 9.7 | 0.00 | 2.21 | 1.78 | 90 | 1008.7 |
| 20260506161046 | 10 | 7 | 4.8 | 17.7 | 0.00 | 2.21 | 1.78 | 91 | 1008.7 |
| 20260506160046 | 10 | 359 | 6.4 | 14.5 | 0.00 | 2.21 | 1.78 | 90 | 1008.6 |
| 20260506155046 | 10 | 9 | 6.4 | 14.5 | 0.00 | 2.21 | 1.78 | 90 | 1008.6 |
| 20260506154052 | 10 | 11 | 6.4 | 17.7 | 0.00 | 2.21 | 1.78 | 90 | 1008.5 |
| 20260506153046 | 10 | 21 | 8.0 | 16.1 | 0.00 | 2.21 | 1.78 | 90 | 1008.5 |
| 20260506152048 | 10 | 274 | 8.0 | 16.1 | 0.00 | 2.21 | 1.78 | 91 | 1008.4 |
| 20260506151047 | 10 | 10 | 6.4 | 16.1 | 0.00 | 2.21 | 1.78 | 91 | 1008.4 |
| 20260506145048 | 10 | 11 | 8.0 | 17.7 | 0.00 | 2.21 | 1.78 | 91 | 1008.4 |
| 20260506144046 | 10 | 263 | 8.0 | 16.1 | 0.00 | 2.21 | 1.78 | 92 | 1008.3 |
| 20260506143046 | 10 | 6 | 6.4 | 16.1 | 0.00 | 2.21 | 1.78 | 92 | 1008.3 |
| 20260506142046 | 10 | 16 | 6.4 | 12.9 | 0.03 | 2.21 | 1.78 | 94 | 1008.4 |
| 20260506141047 | 10 | 304 | 6.4 | 16.1 | 0.03 | 2.21 | 1.78 | 94 | 1008.4 |
| 20260506140051 | 10 | 14 | 6.4 | 12.9 | 0.03 | 2.21 | 1.78 | 96 | 1008.4 |
| 20260506135047 | 9 | 15 | 6.4 | 16.1 | 0.03 | 2.21 | 1.78 | 96 | 1008.4 |
| 20260506134047 | 9 | 306 | 4.8 | 12.9 | 0.03 | 2.21 | 1.78 | 97 | 1008.4 |
| 20260506133048 | 9 | 10 | 6.4 | 17.7 | 0.03 | 2.21 | 1.78 | 98 | 1008.4 |
| 20260506131048 | 9 | 23 | 8.0 | 20.9 | 0.03 | 2.18 | 1.75 | 96 | 1008.3 |
| 20260506130045 | 10 | 57 | 6.4 | 14.5 | 0.05 | 2.18 | 1.75 | 96 | 1008.1 |
| 20260506125045 | 10 | 51 | 8.0 | 14.5 | 0.05 | 2.18 | 1.75 | 96 | 1008.0 |
| 20260506124047 | 10 | 11 | 6.4 | 19.3 | 0.05 | 2.18 | 1.75 | 95 | 1007.9 |
| 20260506123046 | 10 | 5 | 8.0 | 16.1 | 0.05 | 2.18 | 1.75 | 97 | 1007.8 |
| 20260506122046 | 10 | 26 | 8.0 | 20.9 | 0.05 | 2.18 | 1.75 | 96 | 1007.8 |
| 20260506120044 | 10 | 337 | 6.4 | 14.5 | 0.05 | 2.16 | 1.75 | 96 | 1007.5 |
| 20260506115045 | 10 | 332 | 6.4 | 12.9 | 0.05 | 2.13 | 1.73 | 96 | 1007.4 |
| 20260506112048 | 10 | 331 | 6.4 | 14.5 | 0.05 | 2.11 | 1.70 | 95 | 1007.4 |
| 20260506111048 | 10 | 1 | 6.4 | 12.9 | 0.08 | 2.11 | 1.70 | 95 | 1007.3 |
| 20260506110045 | 11 | 25 | 6.4 | 12.9 | 0.05 | 2.11 | 1.68 | 96 | 1007.3 |